Weather History for KHMN - November, 2012

Change the Weather History Date:

Friday, November 2, 2012

  Actual Average Record
Temperature  
Mean Temperature 58 °F -  
Max Temperature 79 °F 65 °F 80 °F (2014)
Min Temperature 37 °F 38 °F 28 °F (2000)
Degree Days  
Heating Degree Days 8    
Growing Degree Days 8 (Base 50)    
Moisture  
Dew Point 16 °F    
Average Humidity 21    
Maximum Humidity 37    
Minimum Humidity 10    
Precipitation  
Precipitation 0.00 in - - ()
Sea Level Pressure  
Sea Level Pressure 29.88 in    
Wind  
Wind Speed 3 mph (East)    
Max Wind Speed 9 mph    
Max Gust Speed -    
Visibility 10 miles    
Events      
Averages and records for this station are not official NWS values.
T = Trace of Precipitation, MM = Missing Value Source: NWS Daily Summary

Daily Weather History Graph

Daily Weather History Graph

Search for Another Location

Airport or City:

Trip Planner

Search our weather history database for the weather conditions in past years. The results will help you decide how hot, cold, wet, or windy it might be!

Date:

Astronomy

Nov. 02, 2012 Rise Set
Actual Time 7:23 AM MDT 6:11 PM MDT
Civil Twilight 6:58 AM MDT 6:37 PM MDT
Nautical Twilight 6:28 AM MDT 7:06 PM MDT
Astronomical Twilight 5:59 AM MDT 7:35 PM MDT
Moon 9:07 PM MDT 10:39 AM MDT
Length of Visible Light 11h 39m
Length of Day
10h 48m
Waning Gibbous, 87% of the Moon is Illuminated
Nov 2
Waning Gibbous
Nov 6
Last Quarter
Nov 13
New
Nov 20
First Quarter
Nov 28
Full

Hourly Weather History & Observations

Time (MDT) Temp. Windchill Dew Point Humidity Pressure Visibility Wind Dir Wind Speed Gust Speed Precip Events Conditions
12:55 AM 52.0 °F - 13.5 °F 22% 29.85 in 10.0 mi SE 4.6 mph - N/A   Clear
1:55 AM 44.1 °F 41.5 °F 12.2 °F 28% 29.87 in 10.0 mi NW 4.6 mph - N/A   Clear
2:55 AM 44.1 °F - 12.2 °F 28% 29.87 in 10.0 mi Calm Calm - N/A   Clear
3:55 AM 43.7 °F - 12.9 °F 29% 29.86 in 10.0 mi Calm Calm - N/A   Clear
4:55 AM 41.4 °F 38.4 °F 12.4 °F 31% 29.88 in 10.0 mi ENE 4.6 mph - N/A   Clear
5:55 AM 40.6 °F 38.6 °F 12.4 °F 32% 29.88 in 10.0 mi NE 3.5 mph - N/A   Clear
6:55 AM 41.9 °F - 12.9 °F 31% 29.91 in 10.0 mi Calm Calm - N/A   Clear
7:55 AM 37.8 °F 34.2 °F 13.3 °F 37% 29.96 in 10.0 mi NNW 4.6 mph - N/A   Clear
8:55 AM 48.0 °F - 15.4 °F 27% 29.97 in 10.0 mi Calm Calm - N/A   Clear
9:55 AM 56.7 °F - 16.9 °F 21% 29.97 in 10.0 mi Calm Calm - N/A   Clear
10:55 AM 64.8 °F - 17.2 °F 16% 29.94 in 10.0 mi Calm Calm - N/A   Clear
11:55 AM 70.2 °F - 18.1 °F 14% 29.93 in 10.0 mi South 4.6 mph - N/A   Clear
12:55 PM 74.3 °F - 16.9 °F 11% 29.87 in 10.0 mi South 4.6 mph - N/A   Clear
1:55 PM 75.7 °F - 15.8 °F 10% 29.86 in 10.0 mi Calm Calm - N/A   Clear
2:55 PM 78.1 °F - 17.6 °F 10% 29.82 in 10.0 mi Calm Calm - N/A   Clear
3:55 PM 77.9 °F - 17.6 °F 10% 29.81 in 10.0 mi ENE 3.5 mph - N/A   Clear
4:55 PM 77.9 °F - 17.4 °F 10% 29.81 in 10.0 mi SE 4.6 mph - N/A   Clear
5:55 PM 74.8 °F - 19.2 °F 12% 29.83 in 10.0 mi SE 3.5 mph - N/A   Clear
6:55 PM 67.5 °F - 18.5 °F 15% 29.84 in 10.0 mi East 5.8 mph - N/A   Clear
7:55 PM 62.6 °F - 18.9 °F 19% 29.89 in 10.0 mi East 9.2 mph - N/A   Clear
8:55 PM 61.7 °F - 18.1 °F 19% 29.86 in 10.0 mi NNW 4.6 mph - N/A   Clear
9:55 PM 56.3 °F - 17.1 °F 22% 29.86 in 10.0 mi NNE 6.9 mph - N/A   Clear
10:55 PM 53.8 °F - 17.1 °F 24% 29.86 in 10.0 mi Variable 4.6 mph - N/A   Clear
11:55 PM 50.7 °F - 16.3 °F 26% 29.85 in 10.0 mi ESE 5.8 mph - N/A   Partly Cloudy